This is the latest recevied weather packets stored in our database for station/object OE3TEC-15. If no packets are shown the sender has not sent any weather packets the latest 10 day(s).
| Time | Temp. | Humidity | Pressure | Rain* | Wind** | Luminosity | Snow |
|---|---|---|---|---|---|---|---|
| 1777688721 | 2.78° C | 86% | 1026.4 hPa | 0 mm | - | 0 W/m² | - |
| 1777688121 | 3.33° C | 86% | 1026.4 hPa | 0 mm | - | 0 W/m² | - |
| 1777687514 | 3.33° C | 85% | 1026.5 hPa | 0 mm | - | 0 W/m² | - |
| 1777686907 | 3.33° C | 87% | 1026.6 hPa | 0 mm | - | 0 W/m² | - |
| 1777686299 | 3.33° C | 85% | 1026.6 hPa | 0 mm | - | 0 W/m² | - |
| 1777685693 | 3.89° C | 85% | 1026.4 hPa | 0 mm | - | 0 W/m² | - |
| 1777685086 | 3.89° C | 84% | 1026.5 hPa | 0 mm | - | 0 W/m² | - |
| 1777684478 | 4.44° C | 82% | 1026.4 hPa | 0 mm | - | 0 W/m² | - |
| 1777683870 | 3.89° C | 84% | 1026.5 hPa | 0 mm | - | 0 W/m² | - |
| 1777683263 | 3.89° C | 84% | 1026.6 hPa | 0 mm | - | 0 W/m² | - |
| 1777682657 | 4.44° C | 82% | 1026.5 hPa | 0 mm | - | 0 W/m² | - |
| 1777682050 | 4.44° C | 83% | 1026.6 hPa | 0 mm | - | 0 W/m² | - |
| 1777681443 | 4.44° C | 82% | 1026.7 hPa | 0 mm | - | 0 W/m² | - |
| 1777680835 | 5° C | 80% | 1026.9 hPa | 0 mm | - | 0 W/m² | - |
| 1777680234 | 5° C | 82% | 1026.7 hPa | 0 mm | - | 0 W/m² | - |
| 1777679629 | 5° C | 80% | 1026.6 hPa | 0 mm | - | 0 W/m² | - |
| 1777679022 | 5.56° C | 80% | 1026.7 hPa | 0 mm | - | 0 W/m² | - |
| 1777678415 | 5.56° C | 79% | 1026.8 hPa | 0 mm | - | 0 W/m² | - |
| 1777677809 | 5.56° C | 78% | 1026.8 hPa | 0 mm | - | 0 W/m² | - |
| 1777677201 | 6.11° C | 78% | 1026.8 hPa | 0 mm | - | 0 W/m² | - |
| 1777676594 | 6.67° C | 75% | 1026.7 hPa | 0 mm | - | 0 W/m² | - |
| 1777675987 | 6.67° C | 75% | 1026.6 hPa | 0 mm | - | 0 W/m² | - |
| 1777675379 | 7.22° C | 75% | 1026.8 hPa | 0 mm | - | 0 W/m² | - |
| 1777674772 | 7.22° C | 74% | 1026.7 hPa | 0 mm | - | 0 W/m² | - |
| 1777674166 | 7.22° C | 75% | 1026.7 hPa | 0 mm | - | 0 W/m² | - |
* Rain latest hour (hover to see other rain measurements)
** Current wind speed in m/s (hover to see current wind gust speed)